Weather observations for the past three days for
Sturgis, Kirsch Municipal Airport
| Date | Time (edt) | Wind (mph) | Vis. (mi.) | Weather | Sky Cond. | Temperature (ºF) | Relative Humidity | Wind Chill (°F) | Heat Index (°F) | Pressure | Precipitation (in) | ||||||
|---|---|---|---|---|---|---|---|---|---|---|---|---|---|---|---|---|---|
| Air | Dwpt | 6 hour | altimeter (in) | sea level (mb) | 1 hr | 3 hr | 6 hr | ||||||||||
| Max. | Min. | ||||||||||||||||
| 06 | 03:55 | N 9 | 10.00 | Overcast | OVC100 | 46.4 | 33.8 | 62% | 42 | 29.81 | 0.0 | ||||||
| 06 | 03:35 | N 6 | 10.00 | Overcast | OVC110 | 46.4 | 35.6 | 66% | 44 | 29.8 | 0.0 | ||||||
| 06 | 03:16 | N 5 | 10.00 | Overcast | OVC110 | 46.4 | 35.6 | 66% | 45 | 29.81 | 0.0 | ||||||
| 06 | 02:55 | NW 6 | 10.00 | Overcast | BKN095 OVC110 | 46.4 | 35.6 | 66% | 44 | 29.82 | 0.0 | ||||||
| 06 | 02:35 | NW 3 | 10.00 | Overcast | SCT095 OVC120 | 46.4 | 35.6 | 66% | 29.82 | 0.0 | |||||||
| 06 | 02:15 | NW 3 | 10.00 | Overcast | SCT085 OVC120 | 46.4 | 37.4 | 71% | 29.81 | 0.0 | |||||||
| 06 | 01:55 | NW 3 | 10.00 | Overcast | OVC085 | 46.4 | 37.4 | 49.6 | 46.4 | 71% | 29.82 | 0.0 | |||||
| 06 | 01:35 | NW 3 | 10.00 | Overcast | OVC085 | 46.4 | 35.6 | 66% | 29.83 | 0.0 | |||||||
| 06 | 01:15 | NW 3 | 10.00 | Overcast | OVC085 | 46.4 | 35.6 | 66% | 29.82 | 0.0 | |||||||
| 06 | 00:56 | NW 3 | 10.00 | Overcast | OVC085 | 46.4 | 37.4 | 71% | 29.82 | 0.0 | |||||||
| 06 | 00:35 | NW 3 | 10.00 | Overcast | OVC110 | 46.4 | 41 | 82% | 29.81 | 0.0 | |||||||
| 06 | 00:15 | N 2 | 10.00 | Overcast | OVC110 | 46.4 | 41 | 82% | 29.8 | 0.0 | |||||||
| 05 | 23:55 | NW 2 | 10.00 | Overcast | OVC110 | 46.4 | 41 | 82% | 29.81 | 0.0 | |||||||
| 05 | 23:35 | N 2 | 10.00 | Overcast | OVC110 | 46.4 | 41 | 82% | 29.81 | 0.0 | |||||||
| 05 | 23:15 | W 2 | 10.00 | Overcast | OVC090 | 48.2 | 39.2 | 71% | 29.81 | 0.0 | |||||||
| 05 | 22:55 | W 1 | 10.00 | Overcast | OVC090 | 48.2 | 37.4 | 66% | 29.81 | 0.0 | |||||||
| 05 | 22:36 | NW 1 | 10.00 | Overcast | OVC080 | 48.2 | 37.4 | 66% | 29.8 | 0.0 | |||||||
| 05 | 22:15 | NW 1 | 10.00 | Overcast | OVC080 | 48.2 | 32 | 54% | 29.81 | 0.0 | |||||||
| 05 | 21:55 | NW 2 | 10.00 | Overcast | OVC080 | 48.2 | 35.6 | 62% | 29.8 | 0.0 | |||||||
| 05 | 21:35 | N 2 | 10.00 | Overcast | OVC080 | 48.2 | 37.4 | 66% | 29.79 | 0.0 | |||||||
| 05 | 21:15 | N 2 | 10.00 | Overcast | OVC080 | 48.2 | 35.6 | 62% | 29.79 | 0.0 | |||||||
| 05 | 20:55 | N 2 | 10.00 | Overcast | OVC080 | 48.2 | 33.8 | 58% | 29.78 | 0.0 | |||||||
| 05 | 20:35 | N 3 | 10.00 | Overcast | OVC090 | 50 | 33.8 | 54% | 29.78 | 0.0 | |||||||
| 05 | 20:16 | N 3 | 10.00 | Overcast | OVC090 | 50 | 32 | 50% | 29.78 | 0.0 | |||||||
| 05 | 19:55 | N 5 | 10.00 | Overcast | OVC090 | 50 | 33.8 | 54 | 49.5 | 54% | 49 | 29.78 | 0.0 | ||||
| 05 | 19:35 | NW 2 | 10.00 | Overcast | OVC090 | 50 | 30.2 | 47% | 29.79 | 0.0 | |||||||
| 05 | 19:15 | NW 6 | 10.00 | Overcast | OVC090 | 50 | 30.2 | 47% | 48 | 29.8 | 0.0 | ||||||
| 05 | 18:55 | NW 5 | 10.00 | Overcast | OVC100 | 50 | 30.2 | 47% | 49 | 29.79 | 0.0 | ||||||
| 05 | 18:35 | NW 8 | 10.00 | Mostly Cloudy | BKN110 | 50 | 30.2 | 47% | 47 | 29.79 | 0.0 | ||||||
| 05 | 18:15 | NW 8 | 10.00 | Partly Cloudy | SCT120 | 50 | 30.2 | 47% | 47 | 29.79 | 0.0 | ||||||
| 05 | 17:56 | NW 8 | 10.00 | Mostly Cloudy | FEW070 BKN120 | 50 | 28.4 | 43% | 47 | 29.79 | 0.0 | ||||||
| 05 | 17:35 | NW 10 | 10.00 | Mostly Cloudy | FEW070 BKN120 | 51.8 | 28.4 | 41% | 29.8 | 0.0 | |||||||
| 05 | 17:15 | NW 9 | 10.00 | Partly Cloudy | SCT070 | 51.8 | 32 | 47% | 29.79 | 0.0 | |||||||
| 05 | 16:55 | NW 9 G 20 | 10.00 | Fair | CLR | 51.8 | 33.8 | 50% | 29.78 | 0.0 | |||||||
| 05 | 16:35 | NW 10 | 10.00 | Fair | CLR | 53.6 | 35.6 | 51% | 29.78 | 0.0 | |||||||
| 05 | 16:15 | NW 10 | 10.00 | Partly Cloudy | SCT075 SCT090 | 53.6 | 37.4 | 54% | 29.79 | 0.0 | |||||||
| 05 | 15:55 | NW 9 | 10.00 | Overcast | OVC075 | 53.6 | 37.4 | 54% | 29.79 | 0.0 | |||||||
| 05 | 15:36 | NW 8 | 10.00 | Overcast | OVC075 | 53.6 | 37.4 | 54% | 29.79 | 0.0 | |||||||
| 05 | 15:15 | NW 12 | 10.00 | Overcast | OVC075 | 53.6 | 39.2 | 58% | 29.8 | 0.0 | |||||||
| 05 | 14:55 | W 6 | 10.00 | Overcast | OVC075 | 51.8 | 37.4 | 58% | 29.79 | 0.0 | |||||||
| 05 | 14:35 | W 8 | 10.00 | Overcast | OVC075 | 51.8 | 37.4 | 58% | 29.79 | 0.0 | |||||||
| 05 | 14:15 | W 7 | 10.00 | Overcast | FEW050 OVC075 | 51.8 | 37.4 | 58% | 29.79 | 0.0 | |||||||
| 05 | 13:55 | W 8 | 10.00 | Overcast | OVC075 | 51.8 | 39.2 | 52.9 | 44.6 | 62% | 29.8 | 0.0 | |||||
| 05 | 13:35 | NW 9 | 10.00 | Overcast | OVC075 | 51.8 | 37.4 | 58% | 29.79 | 0.0 | |||||||
| 05 | 13:16 | W 8 | 10.00 | Overcast | OVC075 | 50 | 37.4 | 62% | 47 | 29.79 | 0.0 | ||||||
| 05 | 12:55 | W 9 | 10.00 | Mostly Cloudy | BKN085 | 50 | 39.2 | 67% | 47 | 29.78 | 0.0 | ||||||
| 05 | 12:35 | Vrbl 5 | 10.00 | Overcast | OVC085 | 48.2 | 39.2 | 71% | 47 | 29.77 | 0.0 | ||||||
| 05 | 12:15 | NW 6 | 10.00 | Overcast | OVC095 | 46.4 | 39.2 | 76% | 44 | 29.78 | 0.0 | ||||||
| 05 | 11:55 | NW 6 | 10.00 | Light Rain | OVC085 | 44.6 | 39.2 | 81% | 42 | 29.78 | 0.0 | 0.01 | |||||
| 05 | 11:35 | NW 7 | 10.00 | Light Rain | OVC085 | 44.6 | 42.8 | 93% | 41 | 29.78 | 0.0 | ||||||
| 05 | 11:15 | NW 8 | 10.00 | Light Rain | FEW065 OVC080 | 44.6 | 42.8 | 93% | 41 | 29.79 | 0.0 | ||||||
| 05 | 10:56 | NW 6 | 9.00 | Light Rain | BKN075 OVC085 | 44.6 | 41 | 87% | 42 | 29.8 | 0.0 | ||||||
| 05 | 10:35 | NW 12 | 10.00 | Light Drizzle | OVC075 | 46.4 | 41 | 82% | 42 | 29.79 | 0.0 | ||||||
| 05 | 10:15 | NW 14 | 10.00 | Overcast | OVC085 | 48.2 | 39.2 | 71% | 43 | 29.78 | 0.0 | ||||||
| 05 | 09:55 | NW 9 | 10.00 | Overcast | OVC085 | 50 | 39.2 | 67% | 47 | 29.76 | 0.0 | ||||||
| 05 | 09:35 | NW 10 | 10.00 | Mostly Cloudy | BKN085 | 51.8 | 37.4 | 58% | 29.76 | 0.0 | |||||||
| 05 | 09:15 | NW 13 | 10.00 | Fair | CLR | 51.8 | 39.2 | 62% | 29.73 | 0.0 | |||||||
| 05 | 08:55 | NW 12 G 16 | 10.00 | Partly Cloudy | SCT090 | 51.8 | 39.2 | 62% | 29.72 | 0.0 | |||||||
| 05 | 08:36 | W 9 | 10.00 | Mostly Cloudy | BKN090 | 51.8 | 39.2 | 62% | 29.73 | 0.0 | |||||||
| 05 | 08:15 | W 8 | 10.00 | Mostly Cloudy | BKN080 | 51.8 | 41 | 67% | 29.69 | 0.0 | |||||||
| 05 | 07:55 | W 5 | 10.00 | Partly Cloudy | SCT090 | 51.8 | 41 | 56.8 | 50.7 | 67% | 29.68 | 0.0 | |||||
| 05 | 07:35 | NW 6 | 10.00 | Overcast | OVC090 | 51.8 | 39.2 | 62% | 29.68 | 0.0 | |||||||
| 05 | 07:15 | NW 8 | 10.00 | Overcast | OVC090 | 51.8 | 39.2 | 62% | 29.68 | 0.0 | |||||||
| 05 | 06:55 | NW 9 | 10.00 | Overcast | OVC080 | 51.8 | 41 | 67% | 29.68 | 0.0 | |||||||
| 05 | 06:35 | NW 8 | 10.00 | Mostly Cloudy | BKN090 | 53.6 | 46.4 | 77% | 29.66 | 0.0 | |||||||
| 05 | 06:16 | W 7 | 10.00 | Fair | CLR | 53.6 | 51.8 | 94% | 29.66 | 0.0 | |||||||
| 05 | 05:55 | W 6 | 10.00 | Fair | CLR | 53.6 | 51.8 | 94% | 29.63 | 0.0 | |||||||
| 05 | 05:35 | W 6 | 10.00 | Fair | CLR | 53.6 | 51.8 | 94% | 29.63 | 0.0 | |||||||
| 05 | 05:15 | W 10 | 10.00 | A Few Clouds | FEW080 | 55.4 | 51.8 | 88% | 29.63 | 0.0 | |||||||
| 05 | 04:55 | SW 9 | 10.00 | A Few Clouds | FEW025 FEW080 | 55.4 | 51.8 | 88% | 29.62 | 0.0 | |||||||
| 05 | 04:35 | SW 10 | 10.00 | A Few Clouds | FEW080 | 55.4 | 51.8 | 88% | 29.63 | 0.0 | |||||||
| 05 | 04:15 | SW 9 | 10.00 | Partly Cloudy | SCT080 | 55.4 | 51.8 | 88% | 29.61 | 0.0 | |||||||
| 05 | 03:56 | SW 8 | 10.00 | Fair | CLR | 55.4 | 51.8 | 88% | 29.61 | 0.0 | |||||||
| 05 | 03:35 | W 9 | 10.00 | Fair | CLR | 55.4 | 53.6 | 94% | 29.62 | 0.0 | |||||||
| 05 | 03:15 | SW 8 | 10.00 | A Few Clouds | FEW065 | 55.4 | 53.6 | 94% | 29.6 | 0.0 | |||||||
| 05 | 02:55 | SW 9 | 10.00 | Mostly Cloudy | BKN070 | 55.4 | 53.6 | 94% | 29.59 | 0.0 | |||||||
| 05 | 02:35 | SW 9 | 10.00 | Overcast | OVC065 | 57.2 | 53.6 | 88% | 29.58 | 0.0 | |||||||
| 05 | 02:15 | SW 7 | 10.00 | Overcast | OVC065 | 57.2 | 53.6 | 88% | 29.59 | 0.0 | |||||||
| 05 | 01:55 | SW 12 | 10.00 | Mostly Cloudy | BKN075 | 57.2 | 53.6 | 68.7 | 56.3 | 88% | 29.58 | 0.0 | |||||
| 05 | 01:36 | SW 12 | 10.00 | Overcast | BKN075 OVC090 | 57.2 | 53.6 | 88% | 29.58 | 0.0 | |||||||
| 05 | 01:15 | S 14 | 10.00 | Overcast | BKN095 OVC110 | 57.2 | 53.6 | 88% | 29.56 | 0.0 | |||||||
| 05 | 00:55 | S 14 | 10.00 | Mostly Cloudy | SCT085 BKN110 | 57.2 | 53.6 | 88% | 29.56 | 0.0 | 0.01 | ||||||
| 05 | 00:35 | S 17 | 10.00 | Light Rain | SCT075 BKN100 | 57.2 | 53.6 | 88% | 29.57 | 0.0 | |||||||
| 05 | 00:15 | SW 15 G 21 | 9.00 | Light Rain | FEW075 BKN085 OVC110 | 57.2 | 55.4 | 94% | 29.6 | 0.0 | |||||||
| 04 | 23:55 | S 25 G 33 | 7.00 | Rain Fog/Mist and Breezy | BKN075 OVC095 | 57.2 | 53.6 | 88% | 29.54 | 0.0 | 0.16 | ||||||
| 04 | 23:35 | SW 18 G 28 | 8.00 | Light Rain | BKN070 BKN085 | 57.2 | 55.4 | 94% | 29.58 | 0.0 | |||||||
| 04 | 23:16 | SW 18 G 35 | 4.00 | Rain Fog/Mist | FEW060 SCT080 | 57.2 | 55.4 | 94% | 29.59 | 0.0 | |||||||
| 04 | 22:55 | NW 7 | 9.00 | Light Rain | FEW065 OVC080 | 57.2 | 53.6 | 88% | 29.59 | 0.0 | 0.23 | ||||||
| 04 | 22:35 | W 9 G 21 | 10.00 | Light Rain | SCT060 BKN070 OVC090 | 57.2 | 53.6 | 88% | 29.61 | 0.0 | |||||||
| 04 | 22:15 | W 8 | 9.00 | Light Rain | FEW050 BKN070 BKN090 | 60.8 | 53.6 | 77% | 29.58 | 0.0 | |||||||
| 04 | 21:55 | W 16 G 23 | 9.00 | Rain | SCT055 BKN080 OVC110 | 64.4 | 55.4 | 73% | 29.59 | 0.0 | 0.03 | ||||||
| 04 | 21:35 | SW 14 | 10.00 | Light Rain | BKN090 BKN110 | 64.4 | 55.4 | 73% | 29.57 | 0.0 | |||||||
| 04 | 21:15 | SW 13 | 10.00 | Mostly Cloudy | BKN110 | 66.2 | 53.6 | 64% | 29.54 | 0.0 | |||||||
| 04 | 20:56 | SW 15 | 10.00 | Overcast | FEW080 OVC110 | 66.2 | 53.6 | 64% | 29.53 | 0.0 | |||||||
| 04 | 20:35 | SW 15 | 10.00 | Overcast | FEW080 OVC110 | 68 | 53.6 | 60% | 29.53 | 0.0 | |||||||
| 04 | 20:15 | SW 16 | 10.00 | Mostly Cloudy | BKN110 | 68 | 53.6 | 60% | 29.53 | 0.0 | |||||||
| 04 | 19:55 | SW 17 G 29 | 10.00 | Mostly Cloudy | BKN110 | 68 | 53.6 | 76.3 | 65.7 | 60% | 29.53 | 0.0 | |||||
| 04 | 19:35 | SW 22 G 29 | 10.00 | Mostly Cloudy and Breezy | BKN110 | 69.8 | 51.8 | 53% | 29.54 | 0.0 | |||||||
| 04 | 19:15 | SW 21 G 32 | 10.00 | Partly Cloudy and Breezy | FEW090 SCT120 | 69.8 | 50 | 50% | 29.54 | 0.0 | |||||||
| 04 | 18:55 | SW 23 G 37 | 10.00 | Partly Cloudy and Breezy | SCT065 SCT090 | 71.6 | 51.8 | 50% | 29.53 | 0.0 | |||||||
| 04 | 18:36 | SW 26 G 40 | 10.00 | Overcast and Windy | BKN065 OVC090 | 73.4 | 53.6 | 50% | 29.52 | 0.0 | |||||||
| 04 | 18:15 | SW 24 G 30 | 10.00 | Overcast and Breezy | FEW065 OVC090 | 69.8 | 51.8 | 53% | 29.52 | 0.0 | |||||||
| 04 | 17:55 | SW 17 G 28 | 10.00 | Rain | FEW025 BKN065 BKN120 | 69.8 | 53.6 | 57% | 29.52 | 0.0 | 0.12 | ||||||
| 04 | 17:35 | SW 20 G 26 | 10.00 | Mostly Cloudy | BKN065 BKN085 BKN100 | 71.6 | 57.2 | 61% | 29.52 | 0.0 | |||||||
| 04 | 17:15 | SW 13 G 23 | 5.00 | Light Rain Haze | FEW016 BKN065 OVC085 | 66.2 | 55.4 | 68% | 29.53 | 0.0 | |||||||
| 04 | 16:55 | SW 24 G 31 | 10.00 | Mostly Cloudy and Breezy | SCT065 BKN085 | 75.2 | 50 | 41% | 78 | 29.53 | 0.0 | ||||||
| 04 | 16:35 | SW 22 G 28 | 10.00 | Mostly Cloudy and Breezy | SCT065 BKN095 | 75.2 | 51.8 | 44% | 78 | 29.53 | 0.0 | ||||||
| 04 | 16:16 | SW 16 | 10.00 | Partly Cloudy | SCT070 SCT085 | 75.2 | 53.6 | 47% | 78 | 29.54 | 0.0 | ||||||
| 04 | 15:55 | SW 22 | 10.00 | Partly Cloudy and Breezy | SCT060 SCT080 SCT095 | 75.2 | 53.6 | 47% | 78 | 29.56 | 0.0 | ||||||
| 04 | 15:35 | SW 21 | 10.00 | Partly Cloudy and Breezy | SCT060 SCT070 SCT080 | 73.4 | 51.8 | 47% | 29.57 | 0.0 | |||||||
| 04 | 15:15 | SW 22 G 26 | 10.00 | Mostly Cloudy and Breezy | SCT050 BKN070 | 73.4 | 53.6 | 50% | 29.58 | 0.0 | |||||||
| 04 | 14:55 | SW 21 G 28 | 10.00 | Mostly Cloudy and Breezy | SCT050 BKN070 | 73.4 | 51.8 | 47% | 29.58 | 0.0 | |||||||
| 04 | 14:35 | SW 22 | 10.00 | Partly Cloudy and Breezy | SCT050 | 73.4 | 51.8 | 47% | 29.58 | 0.0 | |||||||
| 04 | 14:15 | SW 16 G 25 | 10.00 | Partly Cloudy | SCT060 | 71.6 | 51.8 | 50% | 29.59 | 0.0 | |||||||
| 04 | 13:56 | SW 22 G 28 | 10.00 | Partly Cloudy and Breezy | SCT060 | 71.6 | 50 | 47% | 29.59 | 0.0 | |||||||
| 04 | 13:35 | SW 16 G 28 | 10.00 | Fair | CLR | 71.6 | 48.2 | 44% | 29.6 | 0.0 | |||||||
| 04 | 13:15 | SW 21 G 25 | 10.00 | Fair and Breezy | CLR | 71.6 | 46.4 | 41% | 29.62 | 0.0 | |||||||
| 04 | 12:55 | SW 16 G 24 | 10.00 | Fair | CLR | 71.6 | 44.6 | 38% | 29.63 | 0.0 | |||||||
| 04 | 12:35 | SW 16 | 10.00 | Fair | CLR | 69.8 | 48.2 | 46% | 29.63 | 0.0 | |||||||
| 04 | 12:15 | SW 15 | 10.00 | Fair | CLR | 68 | 48.2 | 49% | 29.64 | 0.0 | |||||||
| 04 | 11:55 | SW 16 | 10.00 | Fair | CLR | 68 | 48.2 | 49% | 29.64 | 0.0 | |||||||
| 04 | 11:36 | SW 17 | 10.00 | Fair | CLR | 66.2 | 48.2 | 52% | 29.66 | 0.0 | |||||||
| 04 | 11:15 | SW 13 G 17 | 10.00 | Fair | CLR | 64.4 | 48.2 | 56% | 29.66 | 0.0 | |||||||
| 04 | 10:55 | SW 16 | 10.00 | Fair | CLR | 64.4 | 48.2 | 56% | 29.67 | 0.0 | |||||||
| 04 | 10:35 | SW 13 | 10.00 | Fair | CLR | 62.6 | 48.2 | 60% | 29.67 | 0.0 | |||||||
| 04 | 10:15 | SW 14 | 10.00 | Fair | CLR | 60.8 | 48.2 | 63% | 29.67 | 0.0 | |||||||
| 04 | 09:55 | SW 13 | 10.00 | Fair | CLR | 60.8 | 48.2 | 63% | 29.68 | 0.0 | |||||||
| 04 | 09:35 | SW 10 | 10.00 | Fair | CLR | 59 | 48.2 | 68% | 29.68 | 0.0 | |||||||
| 04 | 09:16 | SW 8 | 10.00 | Fair | CLR | 57.2 | 46.4 | 67% | 29.68 | 0.0 | |||||||
| 04 | 08:55 | SW 10 | 10.00 | Fair | CLR | 55.4 | 46.4 | 72% | 29.69 | 0.0 | |||||||
| 04 | 08:35 | SW 9 | 10.00 | Fair | CLR | 53.6 | 44.6 | 72% | 29.69 | 0.0 | |||||||
| 04 | 08:15 | SW 9 | 10.00 | Fair | CLR | 51.8 | 44.6 | 77% | 29.7 | 0.0 | |||||||
| 04 | 07:55 | SW 9 | 10.00 | Fair | CLR | 50 | 44.6 | 50.5 | 44.8 | 82% | 47 | 29.7 | 0.0 | ||||
| 04 | 07:35 | SW 9 | 10.00 | Fair | CLR | 48.2 | 42.8 | 82% | 45 | 29.69 | 0.0 | ||||||
| 04 | 07:15 | SW 8 | 10.00 | Fair | CLR | 44.6 | 41 | 87% | 41 | 29.69 | 0.0 | ||||||
| 04 | 06:56 | SW 8 | 10.00 | Fair | CLR | 44.6 | 41 | 87% | 41 | 29.68 | 0.0 | ||||||
| 04 | 06:35 | S 8 | 10.00 | Fair | CLR | 46.4 | 41 | 82% | 43 | 29.68 | 0.0 | ||||||
| 04 | 06:15 | S 8 | 10.00 | Fair | CLR | 44.6 | 41 | 87% | 41 | 29.68 | 0.0 | ||||||
| 04 | 05:55 | SW 8 | 10.00 | Fair | CLR | 44.6 | 41 | 87% | 41 | 29.68 | 0.0 | ||||||
| 04 | 05:35 | S 6 | 10.00 | Fair | CLR | 46.4 | 41 | 82% | 44 | 29.68 | 0.0 | ||||||
| 04 | 05:15 | S 7 | 10.00 | Fair | CLR | 46.4 | 41 | 82% | 43 | 29.69 | 0.0 | ||||||
| 04 | 04:55 | S 7 | 10.00 | Fair | CLR | 46.4 | 41 | 82% | 43 | 29.69 | 0.0 | ||||||
| 04 | 04:36 | S 6 | 10.00 | Fair | CLR | 46.4 | 41 | 82% | 44 | 29.69 | 0.0 | ||||||
| 04 | 04:15 | S 6 | 10.00 | Fair | CLR | 46.4 | 41 | 82% | 44 | 29.69 | 0.0 | ||||||
| 04 | 03:55 | S 8 | 10.00 | Fair | CLR | 46.4 | 41 | 82% | 43 | 29.7 | 0.0 | ||||||
| 04 | 03:35 | S 7 | 10.00 | Fair | CLR | 48.2 | 41 | 76% | 46 | 29.7 | 0.0 | ||||||
| 04 | 03:15 | S 7 | 10.00 | A Few Clouds | FEW075 | 46.4 | 41 | 82% | 43 | 29.72 | 0.0 | ||||||
| 04 | 02:35 | S 8 | 10.00 | Mostly Cloudy | BKN075 | 46.4 | 41 | 82% | 43 | 29.73 | 0.0 | ||||||
| 04 | 02:16 | S 8 | 10.00 | A Few Clouds | FEW075 | 46.4 | 41 | 82% | 43 | 29.74 | 0.0 | ||||||
| 04 | 01:55 | S 9 | 10.00 | A Few Clouds | FEW075 | 48.2 | 41 | 52.2 | 46.9 | 76% | 45 | 29.75 | 0.0 | ||||
| 04 | 01:35 | S 7 | 10.00 | A Few Clouds | FEW075 | 48.2 | 41 | 76% | 46 | 29.75 | 0.0 | ||||||
| 04 | 01:15 | S 7 | 10.00 | Fair | CLR | 48.2 | 41 | 76% | 46 | 29.76 | 0.0 | ||||||
| 04 | 00:55 | S 7 | 10.00 | Fair | CLR | 48.2 | 41 | 76% | 46 | 29.76 | 0.0 | ||||||
| 04 | 00:35 | S 9 | 10.00 | Fair | CLR | 48.2 | 41 | 76% | 45 | 29.77 | 0.0 | ||||||
| 04 | 00:15 | S 10 | 10.00 | Fair | CLR | 48.2 | 41 | 76% | 44 | 29.77 | 0.0 | ||||||
| 03 | 23:56 | S 13 G 17 | 10.00 | Fair | CLR | 48.2 | 41 | 76% | 43 | 29.77 | 0.0 | ||||||
| 03 | 23:35 | S 13 | 10.00 | Fair | CLR | 48.2 | 41 | 76% | 43 | 29.77 | 0.0 | ||||||
| 03 | 23:15 | S 12 | 10.00 | Fair | CLR | 48.2 | 41 | 76% | 44 | 29.78 | 0.0 | ||||||
| 03 | 22:55 | S 12 G 16 | 10.00 | Fair | CLR | 48.2 | 41 | 76% | 44 | 29.78 | 0.0 | ||||||
| 03 | 22:35 | S 12 | 10.00 | Fair | CLR | 50 | 41 | 71% | 46 | 29.78 | 0.0 | ||||||
| 03 | 22:15 | S 12 | 10.00 | Fair | CLR | 48.2 | 41 | 76% | 44 | 29.78 | 0.0 | ||||||
| 03 | 21:55 | S 13 | 10.00 | Fair | CLR | 48.2 | 41 | 76% | 43 | 29.79 | 0.0 | ||||||
| 03 | 21:36 | S 12 | 10.00 | A Few Clouds | FEW100 | 50 | 41 | 71% | 46 | 29.79 | 0.0 | ||||||
| 03 | 21:15 | S 10 | 10.00 | Partly Cloudy | SCT100 | 50 | 41 | 71% | 46 | 29.79 | 0.0 | ||||||
| 03 | 20:55 | S 13 | 10.00 | A Few Clouds | FEW110 | 50 | 41 | 71% | 46 | 29.79 | 0.0 | ||||||
| 03 | 20:35 | S 14 G 20 | 10.00 | Mostly Cloudy | BKN110 | 50 | 41 | 71% | 45 | 29.79 | 0.0 | ||||||
| 03 | 20:15 | S 13 | 10.00 | Overcast | BKN090 OVC110 | 51.8 | 41 | 67% | 29.8 | 0.0 | |||||||
| 03 | 19:55 | S 17 | 10.00 | Overcast | OVC090 | 51.8 | 41 | 61.2 | 49.8 | 67% | 29.8 | 0.0 | |||||
| 03 | 19:35 | S 14 | 10.00 | Mostly Cloudy | BKN090 BKN120 | 51.8 | 41 | 67% | 29.81 | 0.0 | |||||||
| 03 | 19:16 | S 16 | 10.00 | Overcast | BKN090 OVC120 | 51.8 | 41 | 67% | 29.82 | 0.0 | |||||||
| 03 | 18:55 | S 14 G 18 | 10.00 | Overcast | OVC090 | 51.8 | 41 | 67% | 29.82 | 0.0 | |||||||
| 03 | 18:35 | S 14 | 10.00 | Overcast | OVC090 | 51.8 | 41 | 67% | 29.83 | 0.0 | |||||||
| 03 | 18:15 | S 12 G 20 | 10.00 | Overcast | BKN075 OVC090 | 50 | 41 | 71% | 46 | 29.84 | 0.0 | ||||||
| 03 | 17:55 | SW 14 | 10.00 | Overcast | OVC070 | 50 | 39.2 | 67% | 45 | 29.85 | 0.0 | ||||||
| 03 | 17:35 | SW 14 | 10.00 | Light Rain | OVC070 | 50 | 41 | 71% | 45 | 29.86 | 0.0 | ||||||
| 03 | 17:15 | SW 16 | 10.00 | Light Rain | OVC060 | 50 | 41 | 71% | 45 | 29.87 | 0.0 | ||||||
| 03 | 16:56 | SW 16 G 22 | 10.00 | Overcast | OVC060 | 51.8 | 39.2 | 62% | 29.87 | 0.0 | |||||||
| 03 | 16:35 | SW 21 | 10.00 | Overcast and Breezy | BKN060 OVC080 | 51.8 | 39.2 | 62% | 29.88 | 0.0 | |||||||
| 03 | 16:15 | SW 20 G 30 | 10.00 | Overcast | SCT050 BKN075 OVC100 | 53.6 | 39.2 | 58% | 29.88 | 0.0 | |||||||
| 03 | 15:55 | W 25 G 32 | 10.00 | Overcast and Breezy | BKN050 OVC065 | 57.2 | 39.2 | 51% | 29.88 | 0.0 | |||||||
| 03 | 15:35 | SW 22 G 31 | 10.00 | Overcast and Breezy | OVC065 | 57.2 | 37.4 | 48% | 29.87 | 0.0 | |||||||
| 03 | 15:15 | SW 22 G 29 | 10.00 | Overcast and Breezy | OVC055 | 59 | 35.6 | 42% | 29.88 | 0.0 | |||||||
| 03 | 14:55 | SW 21 G 26 | 10.00 | Mostly Cloudy and Breezy | BKN055 | 60.8 | 39.2 | 45% | 29.88 | 0.0 | |||||||
| 03 | 14:36 | SW 17 G 32 | 10.00 | A Few Clouds | FEW055 | 59 | 37.4 | 45% | 29.89 | 0.0 | |||||||
| 03 | 14:15 | SW 24 G 32 | 10.00 | Partly Cloudy and Breezy | SCT055 SCT085 | 60.8 | 37.4 | 42% | 29.89 | 0.0 | |||||||
| 03 | 13:55 | SW 20 G 29 | 10.00 | Partly Cloudy | FEW055 SCT085 | 60.8 | 39.2 | 62.2 | 40.3 | 45% | 29.9 | 0.0 | |||||
| 03 | 13:35 | SW 18 G 25 | 10.00 | Mostly Cloudy | BKN085 | 60.8 | 39.2 | 45% | 29.91 | 0.0 | |||||||
| 03 | 13:15 | SW 20 G 28 | 10.00 | Overcast | BKN085 OVC100 | 59 | 37.4 | 45% | 29.92 | 0.0 | |||||||
| 03 | 12:55 | SW 21 | 10.00 | Overcast and Breezy | OVC100 | 57.2 | 37.4 | 48% | 29.93 | 0.0 | |||||||
| 03 | 12:35 | SW 20 G 24 | 10.00 | Overcast | OVC100 | 57.2 | 35.6 | 44% | 29.94 | 0.0 | |||||||
| 03 | 12:16 | W 20 G 24 | 10.00 | Overcast | OVC100 | 59 | 35.6 | 42% | 29.94 | 0.0 | |||||||
| 03 | 11:55 | W 22 G 29 | 10.00 | Overcast and Breezy | OVC100 | 57.2 | 35.6 | 44% | 29.95 | 0.0 | |||||||
| 03 | 11:35 | SW 9 | 10.00 | Overcast | OVC090 | 53.6 | 35.6 | 51% | 29.95 | 0.0 | |||||||
| 03 | 11:15 | SW 14 G 24 | 10.00 | Overcast | OVC090 | 53.6 | 33.8 | 47% | 29.96 | 0.0 | |||||||
| 03 | 10:55 | SW 18 | 10.00 | Overcast | BKN090 OVC100 | 51.8 | 33.8 | 50% | 29.96 | 0.0 | |||||||
| 03 | 10:35 | SW 13 G 18 | 10.00 | Overcast | FEW080 OVC100 | 51.8 | 33.8 | 50% | 29.96 | 0.0 | |||||||
| 03 | 10:15 | SW 15 G 21 | 10.00 | Overcast | BKN080 OVC100 | 50 | 32 | 50% | 45 | 29.97 | 0.0 | ||||||
| 03 | 09:56 | SW 18 G 22 | 10.00 | Overcast | OVC080 | 50 | 32 | 50% | 44 | 29.97 | 0.0 | ||||||
| 03 | 09:35 | SW 12 | 10.00 | Mostly Cloudy | BKN080 | 50 | 33.8 | 54% | 46 | 29.98 | 0.0 | ||||||
| 03 | 09:15 | SW 12 | 10.00 | A Few Clouds | FEW100 | 50 | 33.8 | 54% | 46 | 29.98 | 0.0 | ||||||
| 03 | 08:55 | SW 10 | 10.00 | Fair | CLR | 46.4 | 32 | 57% | 42 | 29.97 | 0.0 | ||||||
| 03 | 08:35 | SW 12 | 10.00 | Fair | CLR | 44.6 | 33.8 | 66% | 39 | 29.97 | 0.0 | ||||||
| 03 | 08:15 | SW 12 | 10.00 | Fair | CLR | 42.8 | 33.8 | 71% | 37 | 29.97 | 0.0 | ||||||
| 03 | 07:55 | SW 8 | 10.00 | Fair | CLR | 41 | 32 | 40.5 | 34.2 | 70% | 36 | 29.97 | 0.0 | ||||
| 03 | 07:36 | SW 8 | 10.00 | Fair | CLR | 37.4 | 30.2 | 75% | 32 | 29.97 | 0.0 | ||||||
| 03 | 07:15 | SW 7 | 10.00 | Fair | CLR | 35.6 | 30.2 | 81% | 31 | 29.97 | 0.0 | ||||||
| 03 | 06:55 | SW 7 | 10.00 | Fair | CLR | 35.6 | 28.4 | 75% | 31 | 29.96 | 0.0 | ||||||
| 03 | 06:35 | SW 7 | 10.00 | Fair | CLR | 35.6 | 28.4 | 75% | 31 | 29.96 | 0.0 | ||||||
| 03 | 06:15 | SW 6 | 10.00 | Fair | CLR | 35.6 | 28.4 | 75% | 31 | 29.96 | 0.0 | ||||||
| 03 | 05:55 | SW 7 | 10.00 | Fair | CLR | 33.8 | 28.4 | 81% | 28 | 29.97 | 0.0 | ||||||
| 03 | 05:35 | SW 7 | 10.00 | Fair | CLR | 33.8 | 28.4 | 81% | 28 | 29.97 | 0.0 | ||||||
| 03 | 05:16 | SW 6 | 10.00 | Fair | CLR | 33.8 | 28.4 | 81% | 29 | 29.97 | 0.0 | ||||||
| 03 | 04:55 | SW 7 | 10.00 | Fair | CLR | 35.6 | 28.4 | 75% | 31 | 29.97 | 0.0 | ||||||
| 03 | 04:35 | SW 6 | 10.00 | Fair | CLR | 35.6 | 28.4 | 75% | 31 | 29.97 | 0.0 | ||||||
| 03 | 04:15 | S 7 | 10.00 | Fair | CLR | 35.6 | 28.4 | 75% | 31 | 29.97 | 0.0 | ||||||
| Date | Time (edt) | Wind (mph) | Vis. (mi.) | Weather | Sky Cond. | Air | Dwpt | Max. | Min. | Relative Humidity | Wind Chill (°F) | Heat Index (°F) | altimeter (in) | sea level (mb) | 1 hr | 3 hr | 6 hr |
| 6 hour | |||||||||||||||||
| Temperature (ºF) | Pressure | Precipitation (in) | |||||||||||||||